Location: Peebles
(55.6412°N, 3.1714°W)
Time: 22:08:49
(UTC+01:00)

CENTAUR R/B - Pass Details

Date: 20 January 2022
Orbit: 716 x 1471 km, 63.4° (Epoch: 08 May)

Event Time Altitude Azimuth Distance (km) Brightness Sun altitude
Rises 21:52:39 0° 293° (WNW) 3,829 6.3 -44.5°
Reaches altitude 10° 21:55:12 10° 298° (WNW) 2,980 5.6 -44.8°
Enters shadow 21:58:43 31° 315° (NW) 1,969 4.4 -45.2°
